TimeEDT,TemperatureF,Dew PointF,Humidity,Sea Level PressureIn,VisibilityMPH,Wind Direction,Wind SpeedMPH,Gust SpeedMPH,PrecipitationIn,Events,Conditions,WindDirDegrees,DateUTC
12:53 AM,64.9,55.9,73,29.90,10.0,North,9.2,-,N/A,,Clear,350,2013-09-03 04:53:00
1:53 AM,61.0,55.9,83,29.91,10.0,North,3.5,-,N/A,,Clear,350,2013-09-03 05:53:00
2:53 AM,61.0,55.9,83,29.91,10.0,NW,5.8,-,N/A,,Clear,320,2013-09-03 06:53:00
3:53 AM,59.0,55.0,87,29.91,10.0,NNW,8.1,-,N/A,,Clear,330,2013-09-03 07:53:00
4:53 AM,57.0,54.0,89,29.92,10.0,NNW,6.9,-,N/A,,Clear,330,2013-09-03 08:53:00
5:53 AM,55.9,54.0,93,29.94,10.0,NW,8.1,-,N/A,,Clear,320,2013-09-03 09:53:00
6:43 AM,55.4,53.6,94,29.97,10.0,NW,5.8,-,N/A,,Mostly Cloudy,320,2013-09-03 10:43:00
6:53 AM,55.9,53.1,90,29.96,10.0,NW,6.9,-,N/A,,Overcast,320,2013-09-03 10:53:00
7:22 AM,55.4,51.8,88,29.98,10.0,NNW,9.2,-,N/A,,Scattered Clouds,340,2013-09-03 11:22:00
7:53 AM,57.0,52.0,83,29.98,10.0,NNW,6.9,-,N/A,,Clear,330,2013-09-03 11:53:00
8:53 AM,59.0,51.1,75,30.00,10.0,NNW,10.4,-,N/A,,Clear,330,2013-09-03 12:53:00
9:53 AM,61.0,50.0,67,30.01,10.0,NNW,13.8,-,N/A,,Partly Cloudy,330,2013-09-03 13:53:00
10:21 AM,62.6,48.2,59,30.03,10.0,NNW,11.5,-,N/A,,Mostly Cloudy,340,2013-09-03 14:21:00
10:53 AM,62.1,48.9,62,30.02,10.0,NNW,15.0,21.9,N/A,,Mostly Cloudy,340,2013-09-03 14:53:00
11:53 AM,62.1,50.0,65,30.04,10.0,NW,10.4,-,N/A,,Overcast,320,2013-09-03 15:53:00
12:53 PM,64.0,51.1,63,30.04,10.0,North,8.1,-,N/A,,Overcast,350,2013-09-03 16:53:00
1:53 PM,64.0,52.0,65,30.04,10.0,North,6.9,-,N/A,,Overcast,350,2013-09-03 17:53:00
2:53 PM,64.9,52.0,63,30.03,10.0,NW,6.9,-,N/A,,Overcast,310,2013-09-03 18:53:00
3:53 PM,64.0,53.1,67,30.03,10.0,North,6.9,-,N/A,,Overcast,360,2013-09-03 19:53:00
4:53 PM,66.0,53.1,63,30.03,10.0,NNW,8.1,16.1,N/A,,Overcast,340,2013-09-03 20:53:00
5:53 PM,66.0,53.1,63,30.03,10.0,North,8.1,-,N/A,,Overcast,360,2013-09-03 21:53:00
6:53 PM,64.9,53.1,65,30.04,10.0,North,3.5,-,N/A,,Partly Cloudy,10,2013-09-03 22:53:00
7:53 PM,61.0,54.0,78,30.04,10.0,East,3.5,-,N/A,,Clear,80,2013-09-03 23:53:00
8:53 PM,61.0,53.1,75,30.05,10.0,ESE,3.5,-,N/A,,Clear,110,2013-09-04 00:53:00
9:53 PM,59.0,53.1,81,30.06,10.0,ESE,3.5,-,N/A,,Clear,120,2013-09-04 01:53:00
10:53 PM,57.9,52.0,81,30.07,10.0,SE,3.5,-,N/A,,Clear,140,2013-09-04 02:53:00
11:53 PM,57.0,53.1,87,30.07,10.0,Calm,Calm,-,N/A,,Clear,0,2013-09-04 03:53:00